{"data":{"norad_id":57939,"epoch":"2026-05-24T22:44:43.420128Z","epoch_age_seconds":86347,"freshness":"FRESH","line1":"1 57939U 23148E   26144.94772477 -.00001473  00000+0 -37639-4 0  9993","line2":"2 57939  53.1610  30.2713 0001615  81.3627 278.7557 15.30180787150093","mean_motion":15.30180787,"eccentricity":0.0001615,"inclination_deg":53.161,"raan_deg":30.2713,"arg_perigee_deg":81.3627,"mean_anomaly_deg":278.7557,"bstar":-3.7639e-5,"rev_number":15009,"period_min":94.106527296242,"perigee_km":474.1656109504,"apogee_km":476.37926219841,"semimajor_km":6853.4094365744,"source":"CELESTRAK","updated_at":"2026-05-25T13:38:18.460947Z"}}